TimeCDT,TemperatureF,Dew PointF,Humidity,Sea Level PressureIn,VisibilityMPH,Wind Direction,Wind SpeedMPH,Gust SpeedMPH,PrecipitationIn,Events,Conditions,WindDirDegrees,DateUTC
12:35 AM,64.4,63.9,98,29.70,10.0,East,4.6,-,0.01,,Overcast,90,2012-10-01 05:35:00
12:55 AM,64.6,64.0,98,29.69,10.0,East,5.8,-,0.01,,Light Drizzle,90,2012-10-01 05:55:00
1:15 AM,64.8,64.4,99,29.68,7.0,ENE,4.6,-,0.02,Rain,Rain,70,2012-10-01 06:15:00
1:35 AM,65.1,64.4,98,29.67,5.0,East,8.1,-,0.07,Rain,Heavy Rain,80,2012-10-01 06:35:00
1:55 AM,65.3,64.6,98,29.66,7.0,East,6.9,-,0.09,Rain,Light Rain,90,2012-10-01 06:55:00
2:35 AM,65.7,65.1,98,29.64,10.0,East,6.9,-,0.10,,Overcast,90,2012-10-01 07:35:00
2:55 AM,66.0,65.5,98,29.63,7.0,ESE,9.2,-,0.11,Rain,Light Rain,110,2012-10-01 07:55:00
3:15 AM,66.4,65.8,98,29.62,4.0,ESE,6.9,16.1,0.07,Rain,Rain,120,2012-10-01 08:15:00
3:35 AM,66.7,66.2,98,29.61,5.0,ESE,4.6,-,0.08,Rain,Rain,110,2012-10-01 08:35:00
3:55 AM,66.9,66.4,98,29.61,5.0,ESE,10.4,-,0.12,Rain,Rain,110,2012-10-01 08:55:00
4:15 AM,67.1,66.6,98,29.60,10.0,SE,9.2,-,0.03,Rain,Light Rain,130,2012-10-01 09:15:00
4:35 AM,67.5,66.9,98,29.61,10.0,South,6.9,-,0.03,,Overcast,180,2012-10-01 09:35:00
4:55 AM,67.8,67.1,98,29.61,7.0,SSE,5.8,-,0.03,,Light Drizzle,150,2012-10-01 09:55:00
5:15 AM,68.0,67.1,97,29.61,10.0,SE,4.6,-,N/A,,Light Drizzle,140,2012-10-01 10:15:00
5:35 AM,68.0,67.1,97,29.60,10.0,ESE,8.1,-,N/A,,Overcast,120,2012-10-01 10:35:00
5:55 AM,68.0,67.1,97,29.60,10.0,SE,8.1,-,N/A,Rain,Light Rain,130,2012-10-01 10:55:00
6:15 AM,68.2,67.3,97,29.59,10.0,SE,4.6,-,N/A,,Overcast,130,2012-10-01 11:15:00
6:35 AM,68.0,67.3,98,29.60,7.0,ESE,6.9,-,0.05,Rain,Light Rain,120,2012-10-01 11:35:00
6:55 AM,68.2,67.5,98,29.59,7.0,ESE,8.1,-,0.06,,Drizzle,120,2012-10-01 11:55:00
7:15 AM,68.4,67.6,98,29.59,10.0,ESE,6.9,-,N/A,,Light Drizzle,120,2012-10-01 12:15:00
7:35 AM,68.4,67.6,98,29.60,7.0,SSE,6.9,-,0.02,Rain,Light Rain,150,2012-10-01 12:35:00
7:55 AM,68.7,68.0,98,29.59,10.0,SSE,6.9,-,0.03,,Overcast,150,2012-10-01 12:55:00
8:15 AM,68.9,68.2,98,29.60,10.0,SSE,5.8,-,N/A,,Overcast,160,2012-10-01 13:15:00
8:35 AM,69.3,68.5,98,29.60,10.0,SSE,3.5,-,N/A,,Overcast,150,2012-10-01 13:35:00
8:55 AM,69.6,68.9,98,29.60,10.0,SSE,8.1,-,N/A,,Overcast,150,2012-10-01 13:55:00
9:15 AM,70.3,69.1,96,29.60,10.0,SSE,6.9,-,N/A,,Overcast,150,2012-10-01 14:15:00
9:35 AM,70.7,69.4,96,29.60,10.0,SE,6.9,-,N/A,,Overcast,140,2012-10-01 14:35:00
9:55 AM,71.1,69.6,95,29.60,7.0,SSE,9.2,-,N/A,Rain,Light Rain,150,2012-10-01 14:55:00
10:15 AM,70.9,69.6,96,29.59,7.0,SE,6.9,-,N/A,Rain,Light Rain,140,2012-10-01 15:15:00
10:35 AM,70.9,69.8,96,29.59,5.0,SSE,5.8,-,N/A,Rain-Thunderstorm,Rain,150,2012-10-01 15:35:00
10:55 AM,70.9,69.8,96,29.59,10.0,SSE,5.8,-,0.01,Rain,Rain,150,2012-10-01 15:55:00
11:15 AM,71.2,70.0,96,29.59,10.0,SSE,10.4,-,N/A,,Overcast,160,2012-10-01 16:15:00
11:35 AM,71.2,70.0,96,29.58,3.0,SSE,8.1,-,0.02,Rain,Rain,150,2012-10-01 16:35:00
11:55 AM,72.1,70.9,96,29.57,10.0,SSE,8.1,-,0.02,,Overcast,160,2012-10-01 16:55:00
12:15 PM,74.3,71.4,91,29.57,10.0,South,9.2,16.1,N/A,,Overcast,180,2012-10-01 17:15:00
12:35 PM,76.6,71.4,84,29.56,10.0,South,13.8,21.9,N/A,,Mostly Cloudy,180,2012-10-01 17:35:00
12:55 PM,75.9,70.5,83,29.56,10.0,South,8.1,-,N/A,,Mostly Cloudy,180,2012-10-01 17:55:00
1:15 PM,77.0,70.0,79,29.55,10.0,SSE,10.4,21.9,N/A,,Mostly Cloudy,160,2012-10-01 18:15:00
1:35 PM,76.8,69.8,79,29.54,10.0,SSE,15.0,25.3,N/A,,Mostly Cloudy,150,2012-10-01 18:35:00
1:55 PM,77.2,69.3,76,29.54,10.0,SSE,11.5,24.2,N/A,,Mostly Cloudy,160,2012-10-01 18:55:00
2:15 PM,77.4,69.1,76,29.53,10.0,SSE,9.2,17.3,N/A,Rain,Light Rain,160,2012-10-01 19:15:00
2:35 PM,73.4,69.4,87,29.56,1.2,SSW,16.1,24.2,0.26,Rain,Heavy Rain,200,2012-10-01 19:35:00
2:55 PM,71.8,69.6,93,29.56,10.0,SW,13.8,20.7,0.26,,Overcast,220,2012-10-01 19:55:00
3:15 PM,73.0,69.6,89,29.56,10.0,SW,11.5,19.6,N/A,,Mostly Cloudy,220,2012-10-01 20:15:00
3:35 PM,74.7,69.4,84,29.57,10.0,SSW,13.8,20.7,N/A,,Mostly Cloudy,200,2012-10-01 20:35:00
4:15 PM,74.5,68.9,83,29.57,10.0,SSW,10.4,18.4,N/A,,Mostly Cloudy,210,2012-10-01 21:15:00
4:35 PM,74.5,68.5,82,29.58,10.0,SSW,8.1,-,N/A,,Mostly Cloudy,210,2012-10-01 21:35:00
4:55 PM,75.2,68.0,78,29.58,10.0,SSW,10.4,16.1,N/A,,Mostly Cloudy,210,2012-10-01 21:55:00
5:15 PM,74.8,66.9,76,29.59,10.0,SSW,10.4,16.1,N/A,,Mostly Cloudy,210,2012-10-01 22:15:00
5:35 PM,73.4,65.7,77,29.59,10.0,SW,8.1,-,N/A,,Scattered Clouds,220,2012-10-01 22:35:00
5:55 PM,72.5,65.7,79,29.59,10.0,SW,6.9,-,N/A,,Scattered Clouds,230,2012-10-01 22:55:00
6:15 PM,71.6,64.9,79,29.60,10.0,SW,5.8,9.2,N/A,,Scattered Clouds,220,2012-10-01 23:15:00
6:35 PM,70.5,65.1,83,29.61,10.0,WSW,4.6,-,N/A,,Mostly Cloudy,250,2012-10-01 23:35:00
6:55 PM,69.1,66.2,91,29.61,10.0,WSW,5.8,-,N/A,,Mostly Cloudy,240,2012-10-01 23:55:00
7:15 PM,68.2,65.7,92,29.62,10.0,WSW,5.8,-,N/A,,Overcast,250,2012-10-02 00:15:00
7:35 PM,67.5,64.8,91,29.63,10.0,WSW,5.8,-,N/A,,Overcast,240,2012-10-02 00:35:00
7:55 PM,66.6,63.9,91,29.64,10.0,SW,4.6,-,N/A,,Overcast,220,2012-10-02 00:55:00
8:15 PM,66.2,63.5,91,29.65,10.0,SW,3.5,-,N/A,,Mostly Cloudy,220,2012-10-02 01:15:00
8:35 PM,65.5,63.5,93,29.66,10.0,SW,4.6,-,N/A,,Scattered Clouds,220,2012-10-02 01:35:00
8:55 PM,64.9,62.8,93,29.67,10.0,SSW,3.5,-,N/A,,Scattered Clouds,210,2012-10-02 01:55:00
9:15 PM,64.2,62.1,93,29.67,10.0,Calm,Calm,-,N/A,,Scattered Clouds,0,2012-10-02 02:15:00
9:35 PM,63.7,62.1,94,29.68,10.0,SSW,3.5,-,N/A,,Mostly Cloudy,210,2012-10-02 02:35:00
10:15 PM,64.0,62.2,94,29.69,10.0,SSW,3.5,-,N/A,,Overcast,210,2012-10-02 03:15:00
10:55 PM,63.9,62.2,94,29.70,10.0,Calm,Calm,-,N/A,,Overcast,0,2012-10-02 03:55:00
11:15 PM,63.7,62.2,95,29.69,5.0,West,3.5,-,N/A,Rain,Light Rain,260,2012-10-02 04:15:00
11:35 PM,63.3,62.1,96,29.69,10.0,Calm,Calm,-,N/A,,Overcast,0,2012-10-02 04:35:00
11:55 PM,62.8,61.9,97,29.69,10.0,Calm,Calm,-,N/A,,Overcast,0,2012-10-02 04:55:00